Location: Unspecified
(49.9820°N, 20.4363°E)
Time: 04:40:44
(UTC+02:00)

Vanguard 3 - Pass Details

Date: 23 May 2026
Orbit: 507 x 3204 km, 33.3° (Epoch: 6 June)

Event Time Altitude Azimuth Distance (km) Brightness Sun altitude
Rises 10:05:36 0° 194° (SSW) 5,231 11.4 48.4°
Reaches altitude 10° 10:09:57 10° 179° (S) 4,672 11.5 49.0°
Maximum altitude 10:19:11 21° 137° (SE) 4,549 12.2 50.2°
Drops below altitude 10° 10:30:44 10° 98° (E) 5,998 12.3 51.7°
Sets 10:37:25 0° 85° (E) 7,150 12.3 52.6°
